| time (UTC) | temp F | wind direction | speed MPH | gust MPH | rain 1hr in | rain 24hr in | rain mn in | humidity % | barometer mb |
| 20260507113014 | 68 | 255 | 3.0 | 0.0 | 0.00 | 0.00 | 0.00 | 75 | 1019.2 |
| 20260507112952 | 68 | 256 | 2.0 | 3.0 | 0.00 | 0.00 | 0.00 | 75 | 1019.0 |
| 20260507112512 | 68 | 258 | 3.0 | 0.0 | 0.00 | 0.00 | 0.00 | 73 | 1019.2 |
| 20260507112027 | 69 | 259 | 3.0 | 0.0 | 0.00 | 0.00 | 0.00 | 73 | 1019.4 |
| 20260507111951 | 69 | 259 | 2.0 | 7.0 | 0.00 | 0.00 | 0.00 | 73 | 1018.9 |
| 20260507111647 | 69 | 259 | 4.0 | 0.0 | 0.00 | 0.00 | 0.00 | 71 | 1019.3 |
| 20260507111523 | 69 | 264 | 4.0 | 0.0 | 0.00 | 0.00 | 0.00 | 70 | 1019.3 |
| 20260507111017 | 70 | 257 | 3.0 | 0.0 | 0.00 | 0.00 | 0.00 | 66 | 1019.3 |
| 20260507110513 | 70 | 267 | 3.0 | 0.0 | 0.00 | 0.00 | 0.00 | 65 | 1019.3 |
| 20260507110027 | 70 | 259 | 3.0 | 0.0 | 0.00 | 0.00 | 0.00 | 65 | 1019.2 |
| 20260507105951 | 70 | 259 | 3.0 | 7.0 | 0.00 | 0.01 | 0.00 | 64 | 1018.8 |
| 20260507105518 | 70 | 252 | 4.0 | 0.0 | 0.00 | 0.00 | 0.00 | 64 | 1019.1 |
| 20260507105030 | 70 | 246 | 4.0 | 0.0 | 0.00 | 0.00 | 0.00 | 64 | 1019.2 |
| 20260507104951 | 70 | 264 | 3.0 | 7.0 | 0.00 | 0.01 | 0.00 | 64 | 1018.9 |
| 20260507104559 | 69 | 272 | 4.0 | 0.0 | 0.00 | 0.00 | 0.00 | 65 | 1019.1 |
| 20260507104538 | 70 | 271 | 4.0 | 0.0 | 0.00 | 0.00 | 0.00 | 65 | 1019.1 |
| 20260507104021 | 70 | 252 | 4.0 | 0.0 | 0.00 | 0.00 | 0.00 | 64 | 1019.0 |
| 20260507103537 | 70 | 255 | 3.0 | 0.0 | 0.00 | 0.00 | 0.00 | 64 | 1018.9 |
| 20260507103119 | 69 | 258 | 4.0 | 0.0 | 0.00 | 0.00 | 0.00 | 64 | 1018.9 |
| 20260507103014 | 70 | 266 | 4.0 | 0.0 | 0.00 | 0.00 | 0.00 | 64 | 1018.8 |
| 20260507102952 | 70 | 264 | 3.0 | 7.0 | 0.00 | 0.01 | 0.00 | 63 | 1018.6 |
| 20260507102524 | 70 | 302 | 4.0 | 0.0 | 0.00 | 0.00 | 0.00 | 65 | 1018.8 |
| 20260507102023 | 70 | 257 | 4.0 | 0.0 | 0.00 | 0.00 | 0.00 | 64 | 1018.9 |
| 20260507101951 | 70 | 253 | 4.0 | 7.0 | 0.00 | 0.01 | 0.00 | 63 | 1018.6 |
| 20260507101621 | 69 | 263 | 4.0 | 0.0 | 0.00 | 0.00 | 0.00 | 63 | 1018.7 |
| 20260507101519 | 70 | 264 | 4.0 | 0.0 | 0.00 | 0.00 | 0.00 | 63 | 1018.8 |
| 20260507101025 | 70 | 246 | 4.0 | 0.0 | 0.00 | 0.00 | 0.00 | 62 | 1018.6 |
| 20260507100952 | 70 | 273 | 3.0 | 6.0 | 0.00 | 0.01 | 0.00 | 62 | 1018.3 |
| 20260507100523 | 70 | 273 | 4.0 | 0.0 | 0.00 | 0.00 | 0.00 | 62 | 1018.6 |
| 20260507100124 | 70 | 265 | 4.0 | 0.0 | 0.00 | 0.00 | 0.00 | 62 | 1018.6 |
| 20260507100033 | 70 | 263 | 4.0 | 0.0 | 0.00 | 0.00 | 0.00 | 62 | 1018.6 |
| 20260507095951 | 70 | 259 | 3.0 | 8.0 | 0.00 | 0.01 | 0.00 | 62 | 1018.4 |
| 20260507095528 | 71 | 262 | 4.0 | 0.0 | 0.00 | 0.00 | 0.00 | 61 | 1018.6 |
| 20260507095043 | 71 | 264 | 3.0 | 0.0 | 0.00 | 0.00 | 0.00 | 60 | 1018.6 |
| 20260507094951 | 71 | 257 | 4.0 | 6.0 | 0.00 | 0.01 | 0.00 | 60 | 1018.4 |
| 20260507094609 | 71 | 259 | 3.0 | 0.0 | 0.00 | 0.00 | 0.00 | 60 | 1018.5 |
| 20260507094517 | 72 | 253 | 3.0 | 0.0 | 0.00 | 0.00 | 0.00 | 60 | 1018.5 |
| 20260507094029 | 72 | 263 | 3.0 | 0.0 | 0.00 | 0.00 | 0.00 | 59 | 1018.4 |
| 20260507093951 | 72 | 267 | 3.0 | 3.0 | 0.00 | 0.01 | 0.00 | 60 | 1018.0 |
| 20260507093517 | 72 | 286 | 3.0 | 0.0 | 0.00 | 0.00 | 0.00 | 60 | 1018.4 |
| 20260507093108 | 72 | 254 | 2.0 | 0.0 | 0.00 | 0.00 | 0.00 | 60 | 1018.4 |
| 20260507093009 | 72 | 219 | 2.0 | 0.0 | 0.00 | 0.00 | 0.00 | 59 | 1018.4 |
| 20260507092952 | 72 | 219 | 2.0 | 3.0 | 0.00 | 0.01 | 0.00 | 59 | 1018.1 |
| 20260507092525 | 72 | 268 | 2.0 | 0.0 | 0.00 | 0.00 | 0.00 | 59 | 1018.4 |
| 20260507092011 | 72 | 267 | 2.0 | 0.0 | 0.00 | 0.00 | 0.00 | 60 | 1018.5 |
| 20260507091606 | 71 | 268 | 1.0 | 0.0 | 0.00 | 0.00 | 0.00 | 60 | 1018.4 |
| 20260507091524 | 72 | 277 | 1.0 | 0.0 | 0.00 | 0.00 | 0.00 | 59 | 1018.5 |
| 20260507091040 | 72 | 5 | 1.0 | 0.0 | 0.00 | 0.00 | 0.00 | 58 | 1018.4 |
| 20260507090951 | 72 | 7 | 0.0 | 3.0 | 0.00 | 0.01 | 0.00 | 58 | 1018.1 |
| 20260507090527 | 72 | 10 | 1.0 | 0.0 | 0.00 | 0.00 | 0.00 | 59 | 1018.4 |
| 20260507090045 | 71 | 36 | 1.0 | 0.0 | 0.00 | 0.00 | 0.00 | 60 | 1018.3 |
| 20260507090013 | 72 | 36 | 1.0 | 0.0 | 0.00 | 0.00 | 0.00 | 60 | 1018.3 |
| 20260507085951 | 71 | 36 | 1.0 | 3.0 | 0.00 | 0.01 | 0.00 | 58 | 1017.9 |
| 20260507085524 | 72 | 39 | 1.0 | 0.0 | 0.00 | 0.00 | 0.00 | 58 | 1018.2 |
| 20260507085018 | 71 | 40 | 1.0 | 0.0 | 0.00 | 0.00 | 0.00 | 60 | 1018.2 |
| 20260507084951 | 71 | 55 | 1.0 | 3.0 | 0.00 | 0.01 | 0.00 | 60 | 1017.7 |
| 20260507084542 | 71 | 61 | 2.0 | 0.0 | 0.00 | 0.00 | 0.00 | 58 | 1018.1 |
| 20260507084524 | 71 | 93 | 3.0 | 0.0 | 0.00 | 0.00 | 0.00 | 59 | 1018.0 |
| 20260507084019 | 71 | 65 | 4.0 | 0.0 | 0.00 | 0.00 | 0.00 | 58 | 1018.0 |
| 20260507083952 | 71 | 71 | 3.0 | 7.0 | 0.00 | 0.01 | 0.00 | 58 | 1017.5 |
| 20260507083535 | 71 | 78 | 2.0 | 0.0 | 0.00 | 0.00 | 0.00 | 58 | 1017.9 |
| 20260507083126 | 71 | 64 | 1.0 | 0.0 | 0.00 | 0.00 | 0.00 | 59 | 1017.9 |
| 20260507083045 | 71 | 40 | 1.0 | 0.0 | 0.00 | 0.00 | 0.00 | 58 | 1017.9 |
| 20260507082951 | 71 | 73 | 1.0 | 3.0 | 0.00 | 0.01 | 0.00 | 58 | 1017.6 |
| 20260507082514 | 71 | 51 | 3.0 | 0.0 | 0.00 | 0.00 | 0.00 | 57 | 1017.9 |
| 20260507082020 | 71 | 120 | 3.0 | 0.0 | 0.00 | 0.00 | 0.00 | 57 | 1017.9 |
| 20260507081951 | 71 | 107 | 3.0 | 8.0 | 0.00 | 0.01 | 0.00 | 57 | 1017.5 |
| 20260507081603 | 70 | 78 | 3.0 | 0.0 | 0.00 | 0.00 | 0.00 | 57 | 1017.9 |
| 20260507081513 | 71 | 69 | 3.0 | 0.0 | 0.00 | 0.00 | 0.00 | 57 | 1018.0 |
| 20260507081026 | 71 | 28 | 3.0 | 0.0 | 0.00 | 0.00 | 0.00 | 56 | 1017.8 |
| 20260507080952 | 71 | 49 | 3.0 | 7.0 | 0.00 | 0.01 | 0.00 | 56 | 1017.6 |
| 20260507080513 | 70 | 42 | 3.0 | 0.0 | 0.00 | 0.00 | 0.00 | 57 | 1017.9 |
| 20260507080026 | 70 | 83 | 2.0 | 0.0 | 0.00 | 0.00 | 0.00 | 57 | 1017.8 |
| 20260507075952 | 70 | 69 | 2.0 | 5.0 | 0.00 | 0.01 | 0.00 | 57 | 1017.6 |
| 20260507075518 | 69 | 67 | 2.0 | 0.0 | 0.00 | 0.00 | 0.00 | 60 | 1018.0 |
| 20260507075024 | 69 | 70 | 2.0 | 0.0 | 0.00 | 0.00 | 0.00 | 61 | 1017.9 |
| 20260507074951 | 69 | 53 | 3.0 | 5.0 | 0.00 | 0.01 | 0.00 | 61 | 1017.8 |
| 20260507074601 | 69 | 96 | 3.0 | 0.0 | 0.00 | 0.00 | 0.00 | 61 | 1017.8 |
| 20260507074537 | 69 | 96 | 2.0 | 0.0 | 0.00 | 0.00 | 0.00 | 61 | 1018.0 |
| 20260507074028 | 69 | 80 | 2.0 | 0.0 | 0.00 | 0.00 | 0.00 | 61 | 1017.9 |
| 20260507073517 | 68 | 13 | 1.0 | 0.0 | 0.00 | 0.00 | 0.00 | 63 | 1017.9 |
| 20260507073029 | 67 | 17 | 1.0 | 0.0 | 0.00 | 0.00 | 0.00 | 62 | 1017.9 |
| 20260507073006 | 67 | 30 | 1.0 | 0.0 | 0.00 | 0.00 | 0.00 | 62 | 1017.8 |
| 20260507072952 | 67 | 30 | 2.0 | 3.0 | 0.00 | 0.01 | 0.00 | 63 | 1017.5 |
| 20260507072537 | 67 | 64 | 1.0 | 0.0 | 0.00 | 0.00 | 0.00 | 63 | 1017.9 |
| 20260507072026 | 67 | 64 | 1.0 | 0.0 | 0.00 | 0.00 | 0.00 | 63 | 1017.9 |
| 20260507071616 | 66 | 41 | 2.0 | 0.0 | 0.00 | 0.00 | 0.00 | 63 | 1017.9 |
| 20260507071558 | 67 | 41 | 2.0 | 0.0 | 0.00 | 0.00 | 0.00 | 63 | 1018.0 |
| 20260506230058 | 50 | 186 | 4.0 | 0.0 | 0.00 | 0.00 | 0.00 | 81 | 1016.7 |
| 20260506230018 | 51 | 186 | 4.0 | 0.0 | 0.00 | 0.00 | 0.00 | 81 | 1016.8 |
| 20260506225952 | 51 | 185 | 5.0 | 5.0 | 0.00 | 0.01 | 0.00 | 81 | 1016.4 |
| 20260506225534 | 51 | 186 | 3.0 | 0.0 | 0.00 | 0.00 | 0.00 | 81 | 1016.8 |
| 20260506225032 | 51 | 182 | 3.0 | 0.0 | 0.00 | 0.00 | 0.00 | 80 | 1016.9 |
| 20260506224605 | 51 | 182 | 3.0 | 0.0 | 0.00 | 0.00 | 0.00 | 81 | 1016.8 |
| 20260506224045 | 51 | 184 | 3.0 | 0.0 | 0.00 | 0.00 | 0.00 | 80 | 1016.9 |
| 20260506223110 | 51 | 185 | 3.0 | 0.0 | 0.00 | 0.00 | 0.00 | 80 | 1016.8 |
| 20260506223013 | 52 | 185 | 3.0 | 0.0 | 0.00 | 0.00 | 0.00 | 80 | 1016.8 |
| 20260506222953 | 52 | 185 | 3.0 | 5.0 | 0.00 | 0.01 | 0.00 | 80 | 1016.4 |
| 20260506222532 | 52 | 186 | 3.0 | 0.0 | 0.00 | 0.00 | 0.00 | 80 | 1016.6 |
| 20260506222023 | 52 | 189 | 2.0 | 0.0 | 0.00 | 0.00 | 0.00 | 80 | 1016.6 |
| 20260506221615 | 52 | 189 | 3.0 | 0.0 | 0.00 | 0.00 | 0.00 | 79 | 1016.7 |
| 20260506221522 | 52 | 189 | 3.0 | 0.0 | 0.00 | 0.00 | 0.00 | 79 | 1016.8 |
| 20260506221014 | 53 | 190 | 3.0 | 0.0 | 0.00 | 0.00 | 0.00 | 79 | 1016.9 |
| 20260506220953 | 53 | 190 | 3.0 | 5.0 | 0.00 | 0.01 | 0.00 | 79 | 1016.4 |
| 20260506220514 | 53 | 189 | 3.0 | 0.0 | 0.00 | 0.00 | 0.00 | 79 | 1016.7 |
| 20260506220033 | 53 | 185 | 3.0 | 0.0 | 0.00 | 0.00 | 0.00 | 78 | 1016.6 |
| 20260506220004 | 52 | 182 | 3.0 | 0.0 | 0.00 | 0.00 | 0.00 | 78 | 1016.5 |
| 20260506215953 | 53 | 180 | 3.0 | 5.0 | 0.00 | 0.01 | 0.00 | 78 | 1016.3 |
| 20260506215526 | 53 | 176 | 3.0 | 0.0 | 0.00 | 0.00 | 0.00 | 78 | 1016.5 |
| 20260506215022 | 53 | 177 | 3.0 | 0.0 | 0.00 | 0.00 | 0.00 | 78 | 1016.6 |
| 20260506214952 | 53 | 179 | 2.0 | 3.0 | 0.00 | 0.01 | 0.00 | 78 | 1016.2 |
| 20260506214539 | 53 | 197 | 3.0 | 0.0 | 0.00 | 0.00 | 0.00 | 78 | 1016.6 |
| 20260506214513 | 54 | 198 | 3.0 | 0.0 | 0.00 | 0.00 | 0.00 | 78 | 1016.6 |
| 20260506214009 | 54 | 206 | 3.0 | 0.0 | 0.00 | 0.00 | 0.00 | 77 | 1016.6 |
| 20260506213953 | 54 | 206 | 2.0 | 3.0 | 0.00 | 0.01 | 0.00 | 77 | 1016.2 |
| 20260506213529 | 54 | 206 | 3.0 | 0.0 | 0.00 | 0.00 | 0.00 | 77 | 1016.7 |
| 20260506213154 | 54 | 206 | 3.0 | 0.0 | 0.00 | 0.00 | 0.00 | 77 | 1016.6 |
| 20260506213108 | 54 | 206 | 3.0 | 0.0 | 0.00 | 0.00 | 0.00 | 77 | 1016.7 |
| 20260506212953 | 54 | 206 | 4.0 | 5.0 | 0.00 | 0.01 | 0.00 | 77 | 1016.3 |
| 20260506212513 | 54 | 200 | 2.0 | 0.0 | 0.00 | 0.00 | 0.00 | 76 | 1016.5 |
| 20260506212012 | 54 | 200 | 2.0 | 0.0 | 0.00 | 0.00 | 0.00 | 76 | 1016.6 |
| 20260506211953 | 54 | 200 | 2.0 | 3.0 | 0.00 | 0.01 | 0.00 | 76 | 1016.2 |
| 20260506211621 | 54 | 200 | 2.0 | 0.0 | 0.00 | 0.00 | 0.00 | 76 | 1016.4 |
| 20260506211528 | 55 | 200 | 2.0 | 0.0 | 0.00 | 0.00 | 0.00 | 76 | 1016.5 |
| 20260506211019 | 55 | 200 | 2.0 | 0.0 | 0.00 | 0.00 | 0.00 | 77 | 1016.5 |
| 20260506210953 | 55 | 200 | 2.0 | 3.0 | 0.00 | 0.01 | 0.00 | 77 | 1016.2 |
| 20260506210517 | 55 | 204 | 3.0 | 0.0 | 0.00 | 0.00 | 0.00 | 77 | 1016.5 |
| 20260506210031 | 56 | 225 | 3.0 | 0.0 | 0.00 | 0.00 | 0.01 | 77 | 1016.5 |
| 20260506210005 | 55 | 228 | 3.0 | 0.0 | 0.00 | 0.00 | 0.01 | 77 | 1016.3 |
| 20260506205953 | 56 | 229 | 3.0 | 3.0 | 0.00 | 0.01 | 0.00 | 77 | 1016.2 |
| 20260506205523 | 56 | 229 | 2.0 | 0.0 | 0.00 | 0.00 | 0.01 | 77 | 1016.5 |
| 20260506205042 | 56 | 242 | 2.0 | 0.0 | 0.00 | 0.00 | 0.01 | 78 | 1016.5 |
| 20260506204624 | 56 | 242 | 1.0 | 0.0 | 0.00 | 0.00 | 0.01 | 78 | 1016.5 |
| 20260506204520 | 56 | 242 | 2.0 | 0.0 | 0.00 | 0.00 | 0.01 | 78 | 1016.4 |
| 20260506204013 | 57 | 243 | 2.0 | 0.0 | 0.00 | 0.00 | 0.01 | 79 | 1016.6 |
| 20260506203952 | 57 | 243 | 1.0 | 3.0 | 0.00 | 0.01 | 0.01 | 79 | 1016.2 |
| 20260506203512 | 57 | 238 | 2.0 | 0.0 | 0.00 | 0.00 | 0.01 | 79 | 1016.6 |
| 20260506203029 | 57 | 238 | 2.0 | 0.0 | 0.00 | 0.00 | 0.01 | 79 | 1016.5 |
| 20260506203014 | 56 | 238 | 2.0 | 0.0 | 0.00 | 0.00 | 0.01 | 79 | 1016.5 |
| 20260506202952 | 57 | 238 | 2.0 | 3.0 | 0.00 | 0.01 | 0.01 | 79 | 1016.2 |
| 20260506202542 | 57 | 238 | 2.0 | 0.0 | 0.00 | 0.00 | 0.01 | 80 | 1016.5 |
| 20260506202018 | 57 | 238 | 2.0 | 0.0 | 0.00 | 0.00 | 0.01 | 80 | 1016.6 |
| 20260506201952 | 57 | 238 | 2.0 | 3.0 | 0.00 | 0.01 | 0.01 | 80 | 1016.2 |
| 20260506201630 | 57 | 238 | 2.0 | 0.0 | 0.00 | 0.00 | 0.01 | 80 | 1016.5 |
| 20260506201533 | 58 | 238 | 1.0 | 0.0 | 0.00 | 0.00 | 0.01 | 80 | 1016.4 |
| 20260506201030 | 58 | 238 | 1.0 | 0.0 | 0.00 | 0.00 | 0.01 | 79 | 1016.3 |
| 20260506200953 | 58 | 238 | 2.0 | 3.0 | 0.00 | 0.01 | 0.01 | 79 | 1016.0 |
| 20260506200523 | 58 | 238 | 1.0 | 0.0 | 0.00 | 0.00 | 0.01 | 80 | 1016.3 |
| 20260506200124 | 58 | 238 | 1.0 | 0.0 | 0.00 | 0.00 | 0.01 | 81 | 1016.3 |
| 20260506200019 | 58 | 238 | 1.0 | 0.0 | 0.00 | 0.00 | 0.01 | 81 | 1016.3 |
| 20260506195952 | 58 | 252 | 1.0 | 3.0 | 0.00 | 0.01 | 0.01 | 81 | 1016.0 |
| 20260506195510 | 58 | 261 | 0.0 | 0.0 | 0.00 | 0.00 | 0.01 | 81 | 1016.2 |
| 20260506195030 | 58 | 261 | 0.0 | 0.0 | 0.00 | 0.00 | 0.01 | 81 | 1016.3 |
| 20260506194953 | 58 | 261 | 0.0 | 1.0 | 0.00 | 0.01 | 0.01 | 81 | 1016.0 |
| 20260506194618 | 58 | 261 | 0.0 | 0.0 | 0.00 | 0.00 | 0.01 | 81 | 1016.3 |
| 20260506194508 | 59 | 261 | 0.0 | 0.0 | 0.00 | 0.00 | 0.01 | 81 | 1016.3 |
| 20260506194020 | 59 | 261 | 1.0 | 0.0 | 0.00 | 0.00 | 0.01 | 81 | 1016.1 |
| 20260506193952 | 59 | 261 | 0.0 | 3.0 | 0.00 | 0.01 | 0.01 | 81 | 1016.0 |
| 20260506193522 | 59 | 261 | 1.0 | 0.0 | 0.00 | 0.00 | 0.01 | 81 | 1016.3 |
| 20260506193029 | 58 | 261 | 1.0 | 0.0 | 0.00 | 0.00 | 0.01 | 81 | 1016.0 |
| 20260506193011 | 59 | 261 | 2.0 | 0.0 | 0.00 | 0.00 | 0.01 | 81 | 1016.1 |
| 20260506192527 | 59 | 261 | 2.0 | 0.0 | 0.00 | 0.00 | 0.01 | 80 | 1016.1 |
| 20260506192043 | 59 | 261 | 3.0 | 0.0 | 0.00 | 0.00 | 0.01 | 81 | 1016.0 |
| 20260506191953 | 59 | 261 | 3.0 | 3.0 | 0.00 | 0.01 | 0.01 | 80 | 1015.6 |
| 20260506191621 | 59 | 273 | 4.0 | 0.0 | 0.00 | 0.00 | 0.01 | 80 | 1015.9 |
| 20260506191520 | 59 | 273 | 4.0 | 0.0 | 0.00 | 0.00 | 0.01 | 80 | 1015.9 |
| 20260506191010 | 60 | 284 | 2.0 | 0.0 | 0.00 | 0.00 | 0.01 | 80 | 1015.9 |
| 20260506190508 | 60 | 265 | 2.0 | 0.0 | 0.00 | 0.00 | 0.01 | 79 | 1015.9 |
| 20260506190026 | 60 | 264 | 2.0 | 0.0 | 0.00 | 0.00 | 0.01 | 78 | 1015.7 |
| 20260506190007 | 60 | 264 | 3.0 | 0.0 | 0.00 | 0.00 | 0.01 | 78 | 1015.7 |
| 20260506185953 | 60 | 264 | 2.0 | 3.0 | 0.00 | 0.01 | 0.01 | 78 | 1015.3 |
| 20260506185537 | 61 | 266 | 3.0 | 0.0 | 0.00 | 0.00 | 0.01 | 77 | 1015.7 |
| 20260506185013 | 61 | 288 | 2.0 | 0.0 | 0.00 | 0.00 | 0.01 | 77 | 1015.5 |
| 20260506184954 | 61 | 288 | 2.0 | 3.0 | 0.00 | 0.01 | 0.01 | 77 | 1015.3 |
| 20260506184623 | 61 | 287 | 3.0 | 0.0 | 0.00 | 0.00 | 0.01 | 76 | 1015.7 |
| 20260506184532 | 61 | 278 | 3.0 | 0.0 | 0.00 | 0.00 | 0.01 | 76 | 1015.7 |
| 20260506184024 | 62 | 269 | 5.0 | 0.0 | 0.00 | 0.00 | 0.01 | 75 | 1015.7 |
| 20260506183954 | 62 | 274 | 5.0 | 7.0 | 0.00 | 0.01 | 0.01 | 75 | 1015.1 |
| 20260506183524 | 62 | 270 | 4.0 | 0.0 | 0.00 | 0.00 | 0.01 | 74 | 1015.6 |
| 20260506183041 | 62 | 281 | 4.0 | 0.0 | 0.00 | 0.00 | 0.01 | 73 | 1015.5 |
| 20260506183017 | 63 | 299 | 4.0 | 0.0 | 0.00 | 0.00 | 0.01 | 73 | 1015.5 |
| 20260506182515 | 64 | 314 | 6.0 | 0.0 | 0.00 | 0.00 | 0.01 | 72 | 1015.4 |
| 20260506182032 | 64 | 281 | 7.0 | 0.0 | 0.00 | 0.00 | 0.01 | 71 | 1015.2 |
| 20260506181601 | 65 | 285 | 6.0 | 0.0 | 0.00 | 0.00 | 0.01 | 69 | 1014.8 |
| 20260506181523 | 65 | 294 | 6.0 | 0.0 | 0.00 | 0.00 | 0.01 | 69 | 1015.1 |
| 20260506181022 | 66 | 277 | 5.0 | 0.0 | 0.00 | 0.00 | 0.01 | 66 | 1014.9 |
| 20260506180953 | 66 | 279 | 5.0 | 8.0 | 0.00 | 0.01 | 0.01 | 66 | 1014.5 |
| 20260506180514 | 67 | 271 | 5.0 | 0.0 | 0.00 | 0.00 | 0.01 | 64 | 1014.9 |
| 20260506180118 | 68 | 269 | 6.0 | 0.0 | 0.00 | 0.00 | 0.01 | 62 | 1014.6 |
| 20260506180013 | 69 | 269 | 5.0 | 0.0 | 0.00 | 0.00 | 0.01 | 61 | 1014.8 |
| 20260506175953 | 69 | 271 | 6.0 | 8.0 | 0.00 | 0.01 | 0.01 | 61 | 1014.4 |
| 20260506175531 | 70 | 265 | 4.0 | 0.0 | 0.00 | 0.00 | 0.01 | 58 | 1014.6 |
| 20260506175022 | 71 | 262 | 2.0 | 0.0 | 0.00 | 0.00 | 0.01 | 53 | 1014.6 |
| 20260506174953 | 71 | 262 | 3.0 | 7.0 | 0.00 | 0.01 | 0.01 | 52 | 1014.3 |
| 20260506174615 | 71 | 263 | 2.0 | 0.0 | 0.00 | 0.00 | 0.01 | 48 | 1014.7 |
| 20260506174521 | 71 | 263 | 2.0 | 0.0 | 0.00 | 0.00 | 0.01 | 48 | 1014.6 |
| 20260506174016 | 72 | 323 | 1.0 | 0.0 | 0.00 | 0.00 | 0.01 | 48 | 1014.6 |
| 20260506173953 | 72 | 323 | 1.0 | 3.0 | 0.00 | 0.01 | 0.01 | 50 | 1014.2 |
| 20260506173520 | 73 | 321 | 2.0 | 0.0 | 0.00 | 0.00 | 0.01 | 49 | 1014.5 |
| 20260506173044 | 73 | 36 | 2.0 | 0.0 | 0.00 | 0.00 | 0.01 | 49 | 1014.4 |
| 20260506173013 | 73 | 36 | 2.0 | 0.0 | 0.00 | 0.00 | 0.01 | 49 | 1014.4 |
| 20260506172953 | 73 | 36 | 2.0 | 3.0 | 0.00 | 0.01 | 0.01 | 48 | 1014.0 |
| 20260506172514 | 74 | 36 | 1.0 | 0.0 | 0.00 | 0.00 | 0.01 | 49 | 1014.3 |
| 20260506172008 | 75 | 42 | 2.0 | 0.0 | 0.00 | 0.00 | 0.01 | 45 | 1014.2 |
| 20260506171954 | 75 | 46 | 1.0 | 6.0 | 0.00 | 0.01 | 0.01 | 46 | 1013.8 |
| 20260506171602 | 74 | 21 | 3.0 | 0.0 | 0.00 | 0.00 | 0.01 | 39 | 1014.1 |
| 20260506171526 | 75 | 21 | 3.0 | 0.0 | 0.00 | 0.00 | 0.01 | 38 | 1014.0 |
| 20260506171048 | 75 | 209 | 4.0 | 0.0 | 0.00 | 0.00 | 0.01 | 39 | 1014.2 |
| 20260506170528 | 76 | 249 | 6.0 | 0.0 | 0.00 | 0.00 | 0.01 | 37 | 1014.0 |
| 20260506170110 | 75 | 234 | 7.0 | 0.0 | 0.00 | 0.00 | 0.01 | 36 | 1013.8 |
| 20260506170039 | 76 | 227 | 7.0 | 0.0 | 0.00 | 0.00 | 0.01 | 36 | 1013.9 |
| 20260506165953 | 76 | 225 | 7.0 | 12.0 | 0.00 | 0.01 | 0.01 | 35 | 1013.6 |
| 20260506165518 | 76 | 204 | 6.0 | 0.0 | 0.00 | 0.00 | 0.01 | 37 | 1013.9 |
| 20260506165011 | 77 | 227 | 6.0 | 0.0 | 0.00 | 0.00 | 0.01 | 35 | 1013.9 |
| 20260506164954 | 77 | 223 | 7.0 | 13.0 | 0.00 | 0.01 | 0.01 | 36 | 1013.5 |
| 20260506164603 | 77 | 221 | 6.0 | 0.0 | 0.00 | 0.00 | 0.01 | 37 | 1013.9 |
| 20260506164511 | 77 | 217 | 6.0 | 0.0 | 0.00 | 0.00 | 0.01 | 36 | 1014.0 |
| 20260506164031 | 78 | 223 | 7.0 | 0.0 | 0.00 | 0.00 | 0.01 | 35 | 1013.9 |
| 20260506163524 | 78 | 225 | 7.0 | 0.0 | 0.00 | 0.00 | 0.01 | 33 | 1013.9 |
| 20260506163124 | 78 | 221 | 7.0 | 0.0 | 0.00 | 0.00 | 0.01 | 36 | 1013.9 |
| 20260506163023 | 78 | 223 | 7.0 | 0.0 | 0.00 | 0.00 | 0.01 | 35 | 1013.9 |
| 20260506162953 | 78 | 215 | 6.0 | 12.0 | 0.00 | 0.01 | 0.01 | 35 | 1013.6 |
| 20260506162518 | 79 | 228 | 8.0 | 0.0 | 0.00 | 0.00 | 0.01 | 35 | 1013.7 |
| 20260506162018 | 79 | 201 | 8.0 | 0.0 | 0.00 | 0.00 | 0.01 | 34 | 1013.7 |
| 20260506161953 | 79 | 209 | 8.0 | 14.0 | 0.00 | 0.01 | 0.01 | 34 | 1013.4 |
| 20260506161541 | 79 | 206 | 8.0 | 0.0 | 0.00 | 0.00 | 0.01 | 34 | 1013.8 |
| 20260506161511 | 79 | 207 | 8.0 | 0.0 | 0.00 | 0.00 | 0.01 | 34 | 1013.8 |
| 20260506161012 | 79 | 194 | 8.0 | 0.0 | 0.00 | 0.00 | 0.01 | 34 | 1013.8 |
| 20260506160953 | 79 | 202 | 9.0 | 13.0 | 0.00 | 0.01 | 0.01 | 35 | 1013.5 |
| 20260506160533 | 80 | 209 | 8.0 | 0.0 | 0.00 | 0.00 | 0.01 | 36 | 1013.8 |
| 20260506160117 | 79 | 211 | 8.0 | 0.0 | 0.00 | 0.00 | 0.01 | 35 | 1013.9 |
| 20260506160024 | 80 | 209 | 8.0 | 0.0 | 0.00 | 0.00 | 0.01 | 35 | 1013.8 |
| 20260506155953 | 80 | 199 | 9.0 | 13.0 | 0.00 | 0.01 | 0.01 | 35 | 1013.6 |
| 20260506155526 | 80 | 203 | 8.0 | 0.0 | 0.00 | 0.00 | 0.01 | 34 | 1014.0 |
| 20260506155021 | 80 | 198 | 7.0 | 0.0 | 0.00 | 0.00 | 0.01 | 36 | 1013.8 |
| 20260506154954 | 80 | 205 | 6.0 | 13.0 | 0.00 | 0.01 | 0.01 | 36 | 1013.4 |
| 20260506154522 | 80 | 199 | 8.0 | 0.0 | 0.00 | 0.00 | 0.01 | 35 | 1013.8 |
| 20260506154510 | 80 | 209 | 8.0 | 0.0 | 0.00 | 0.00 | 0.01 | 35 | 1013.7 |
| 20260506154015 | 81 | 199 | 9.0 | 0.0 | 0.00 | 0.00 | 0.01 | 36 | 1014.0 |
| 20260506153954 | 81 | 200 | 9.0 | 14.0 | 0.00 | 0.01 | 0.01 | 35 | 1013.5 |
| 20260506153518 | 81 | 198 | 8.0 | 0.0 | 0.00 | 0.00 | 0.01 | 34 | 1013.8 |
| 20260506153050 | 81 | 215 | 8.0 | 0.0 | 0.00 | 0.00 | 0.01 | 36 | 1013.9 |
| 20260506153010 | 81 | 200 | 8.0 | 0.0 | 0.00 | 0.00 | 0.01 | 35 | 1013.8 |
| 20260506152953 | 81 | 205 | 9.0 | 14.0 | 0.00 | 0.01 | 0.01 | 36 | 1013.4 |
| 20260506152511 | 81 | 192 | 8.0 | 0.0 | 0.00 | 0.00 | 0.01 | 36 | 1013.9 |
| 20260506152051 | 82 | 220 | 8.0 | 0.0 | 0.00 | 0.00 | 0.01 | 37 | 1013.8 |
| 20260506151954 | 82 | 224 | 9.0 | 13.0 | 0.00 | 0.01 | 0.01 | 36 | 1013.3 |
| 20260506151550 | 81 | 227 | 7.0 | 0.0 | 0.00 | 0.00 | 0.01 | 38 | 1013.8 |
| 20260506151027 | 82 | 212 | 8.0 | 0.0 | 0.00 | 0.00 | 0.01 | 36 | 1013.8 |
| 20260506150523 | 82 | 196 | 9.0 | 0.0 | 0.00 | 0.00 | 0.01 | 37 | 1013.9 |
| 20260506150119 | 82 | 199 | 7.0 | 0.0 | 0.00 | 0.00 | 0.01 | 38 | 1013.8 |
| 20260506150021 | 82 | 198 | 6.0 | 0.0 | 0.00 | 0.00 | 0.01 | 37 | 1013.8 |
| 20260506145954 | 82 | 195 | 9.0 | 16.0 | 0.00 | 0.01 | 0.01 | 37 | 1013.6 |
| 20260506145542 | 82 | 207 | 6.0 | 0.0 | 0.00 | 0.00 | 0.01 | 39 | 1013.9 |
| 20260506145015 | 83 | 205 | 7.0 | 0.0 | 0.00 | 0.00 | 0.01 | 38 | 1013.8 |
| 20260506144954 | 83 | 235 | 5.0 | 12.0 | 0.00 | 0.01 | 0.01 | 38 | 1013.4 |
| 20260506144618 | 82 | 229 | 7.0 | 0.0 | 0.00 | 0.00 | 0.01 | 38 | 1013.9 |
| 20260506144515 | 83 | 235 | 6.0 | 0.0 | 0.00 | 0.00 | 0.01 | 36 | 1013.9 |
| 20260506144028 | 83 | 225 | 5.0 | 0.0 | 0.00 | 0.00 | 0.01 | 34 | 1013.9 |
| 20260506143953 | 83 | 228 | 6.0 | 12.0 | 0.00 | 0.01 | 0.01 | 38 | 1013.6 |
| 20260506143548 | 82 | 285 | 4.0 | 0.0 | 0.00 | 0.00 | 0.01 | 42 | 1014.0 |
| 20260506143118 | 82 | 318 | 5.0 | 0.0 | 0.00 | 0.00 | 0.01 | 41 | 1013.9 |
| 20260506143025 | 82 | 342 | 5.0 | 0.0 | 0.00 | 0.00 | 0.01 | 39 | 1014.0 |
| 20260506142518 | 83 | 49 | 4.0 | 0.0 | 0.00 | 0.00 | 0.01 | 41 | 1013.8 |
| 20260506142017 | 83 | 37 | 3.0 | 0.0 | 0.00 | 0.00 | 0.01 | 39 | 1013.9 |
| 20260506141954 | 83 | 20 | 2.0 | 6.0 | 0.00 | 0.01 | 0.01 | 39 | 1013.6 |
| 20260506141533 | 82 | 65 | 3.0 | 0.0 | 0.00 | 0.00 | 0.01 | 39 | 1013.9 |
| 20260506141510 | 82 | 68 | 3.0 | 0.0 | 0.00 | 0.00 | 0.01 | 38 | 1014.0 |
| 20260506141012 | 83 | 34 | 5.0 | 0.0 | 0.00 | 0.00 | 0.01 | 40 | 1013.9 |
| 20260506140953 | 82 | 37 | 2.0 | 9.0 | 0.00 | 0.01 | 0.01 | 40 | 1013.6 |
| 20260506140532 | 82 | 42 | 6.0 | 0.0 | 0.00 | 0.00 | 0.01 | 39 | 1014.0 |
| 20260506140054 | 82 | 61 | 7.0 | 0.0 | 0.00 | 0.00 | 0.01 | 40 | 1014.0 |
| 20260506140022 | 83 | 45 | 7.0 | 0.0 | 0.00 | 0.00 | 0.01 | 40 | 1014.0 |
| 20260506135523 | 83 | 43 | 6.0 | 0.0 | 0.00 | 0.00 | 0.01 | 41 | 1014.0 |
| 20260506135017 | 83 | 67 | 6.0 | 0.0 | 0.00 | 0.00 | 0.01 | 40 | 1014.2 |
| 20260506134613 | 82 | 86 | 6.0 | 0.0 | 0.00 | 0.00 | 0.01 | 40 | 1014.1 |
| 20260506134535 | 82 | 93 | 5.0 | 0.0 | 0.00 | 0.00 | 0.01 | 42 | 1014.1 |
| 20260506134014 | 82 | 51 | 6.0 | 0.0 | 0.00 | 0.00 | 0.01 | 42 | 1014.2 |
| 20260506133954 | 82 | 68 | 6.0 | 10.0 | 0.00 | 0.01 | 0.01 | 42 | 1013.9 |
| 20260506133554 | 82 | 80 | 5.0 | 0.0 | 0.00 | 0.00 | 0.01 | 41 | 1014.1 |
| 20260506133053 | 81 | 49 | 6.0 | 0.0 | 0.00 | 0.00 | 0.01 | 42 | 1014.1 |
| 20260506133026 | 82 | 78 | 6.0 | 0.0 | 0.00 | 0.00 | 0.01 | 42 | 1014.2 |
| 20260506132954 | 82 | 46 | 6.0 | 12.0 | 0.00 | 0.01 | 0.01 | 43 | 1013.8 |
| 20260506132524 | 82 | 37 | 6.0 | 0.0 | 0.00 | 0.00 | 0.01 | 41 | 1014.3 |
| 20260506132021 | 81 | 68 | 6.0 | 0.0 | 0.00 | 0.00 | 0.01 | 42 | 1014.4 |
| 20260506131612 | 81 | 68 | 7.0 | 0.0 | 0.00 | 0.00 | 0.01 | 41 | 1014.3 |
| 20260506131520 | 81 | 77 | 7.0 | 0.0 | 0.00 | 0.00 | 0.01 | 41 | 1014.5 |
| 20260506131041 | 81 | 55 | 7.0 | 0.0 | 0.00 | 0.00 | 0.01 | 42 | 1014.7 |
| 20260506130954 | 81 | 66 | 8.0 | 12.0 | 0.00 | 0.01 | 0.01 | 42 | 1014.3 |
| 20260506130512 | 81 | 66 | 7.0 | 0.0 | 0.00 | 0.00 | 0.01 | 42 | 1014.7 |
| 20260506130111 | 80 | 71 | 8.0 | 0.0 | 0.00 | 0.00 | 0.01 | 42 | 1014.6 |
| 20260506130011 | 81 | 49 | 9.0 | 0.0 | 0.00 | 0.00 | 0.01 | 40 | 1014.7 |
| 20260506125954 | 81 | 50 | 7.0 | 12.0 | 0.00 | 0.01 | 0.01 | 42 | 1014.3 |
| 20260506125520 | 81 | 63 | 9.0 | 0.0 | 0.00 | 0.00 | 0.01 | 41 | 1014.7 |
| 20260506125021 | 81 | 65 | 8.0 | 0.0 | 0.00 | 0.00 | 0.01 | 41 | 1014.7 |
| 20260506124955 | 81 | 61 | 9.0 | 13.0 | 0.00 | 0.01 | 0.01 | 41 | 1014.5 |
| 20260506124528 | 80 | 27 | 9.0 | 0.0 | 0.00 | 0.00 | 0.01 | 41 | 1014.7 |
| 20260506124513 | 81 | 64 | 9.0 | 0.0 | 0.00 | 0.00 | 0.01 | 41 | 1014.8 |
| 20260506124013 | 81 | 71 | 10.0 | 0.0 | 0.00 | 0.00 | 0.01 | 40 | 1014.9 |
| 20260506123954 | 81 | 76 | 10.0 | 14.0 | 0.00 | 0.01 | 0.01 | 40 | 1014.4 |
| 20260506123530 | 81 | 63 | 10.0 | 0.0 | 0.00 | 0.00 | 0.01 | 38 | 1014.8 |
| 20260506123047 | 81 | 85 | 10.0 | 0.0 | 0.00 | 0.00 | 0.01 | 38 | 1014.9 |
| 20260506123022 | 81 | 90 | 10.0 | 0.0 | 0.00 | 0.00 | 0.01 | 38 | 1014.8 |
| 20260506122955 | 81 | 82 | 9.0 | 14.0 | 0.00 | 0.01 | 0.01 | 38 | 1014.6 |
| 20260506122522 | 82 | 53 | 9.0 | 0.0 | 0.00 | 0.00 | 0.01 | 39 | 1014.9 |
| 20260506122015 | 82 | 77 | 9.0 | 0.0 | 0.00 | 0.00 | 0.01 | 39 | 1014.9 |
| 20260506121954 | 82 | 92 | 9.0 | 13.0 | 0.00 | 0.01 | 0.01 | 41 | 1014.6 |
| 20260506121606 | 81 | 94 | 8.0 | 0.0 | 0.00 | 0.00 | 0.01 | 41 | 1014.9 |
| 20260506121536 | 81 | 64 | 8.0 | 0.0 | 0.00 | 0.00 | 0.01 | 40 | 1015.0 |
| 20260506121015 | 81 | 63 | 8.0 | 0.0 | 0.00 | 0.00 | 0.01 | 43 | 1015.0 |
| 20260506120954 | 81 | 109 | 5.0 | 13.0 | 0.00 | 0.01 | 0.01 | 42 | 1014.7 |
| 20260506120509 | 82 | 102 | 7.0 | 0.0 | 0.00 | 0.00 | 0.01 | 41 | 1015.1 |
| 20260506120108 | 81 | 111 | 5.0 | 0.0 | 0.00 | 0.00 | 0.01 | 43 | 1015.0 |
| 20260506120047 | 81 | 101 | 5.0 | 0.0 | 0.00 | 0.00 | 0.01 | 44 | 1015.3 |
| 20260506115955 | 81 | 71 | 5.0 | 12.0 | 0.01 | 0.01 | 0.01 | 42 | 1014.7 |
| 20260506115527 | 81 | 127 | 4.0 | 0.0 | 0.00 | 0.00 | 0.01 | 42 | 1015.1 |
| 20260506115021 | 81 | 26 | 6.0 | 0.0 | 0.00 | 0.00 | 0.01 | 42 | 1015.4 |
| 20260506114954 | 81 | 48 | 4.0 | 12.0 | 0.01 | 0.01 | 0.01 | 43 | 1014.9 |
| 20260506114604 | 80 | 67 | 6.0 | 0.0 | 0.00 | 0.00 | 0.01 | 43 | 1015.3 |
| 20260506114540 | 81 | 54 | 6.0 | 0.0 | 0.00 | 0.00 | 0.01 | 42 | 1015.4 |
| 20260506114017 | 81 | 39 | 5.0 | 0.0 | 0.00 | 0.00 | 0.01 | 42 | 1015.3 |
| 20260506113954 | 81 | 52 | 5.0 | 12.0 | 0.01 | 0.01 | 0.01 | 43 | 1014.9 |
| 20260506113509 | 80 | 49 | 4.0 | 0.0 | 0.00 | 0.00 | 0.01 | 41 | 1015.4 |
| 20260506113100 | 80 | 98 | 3.0 | 0.0 | 0.00 | 0.00 | 0.01 | 43 | 1015.2 |